www.pogodaiklimat.ru
Время
и дата
07:53 19.07
08:53 19.07
09:53 19.07
10:53 19.07
11:53 19.07
12:53 19.07
13:53 19.07
14:53 19.07
15:53 19.07
16:53 19.07
17:53 19.07
18:53 19.07
19:53 19.07
20:53 19.07
21:53 19.07
22:53 19.07
23:53 19.07
00:53 20.07
01:53 20.07
02:53 20.07
03:53 20.07
04:53 20.07
05:53 20.07
06:53 20.07
07:53 20.07
08:53 20.07
09:53 20.07
10:53 20.07
11:53 20.07
12:53 20.07
13:53 20.07
14:53 20.07
15:53 20.07
16:53 20.07
17:53 20.07
18:53 20.07
19:53 20.07
20:53 20.07
21:53 20.07
22:53 20.07
23:53 20.07
00:53 21.07
01:53 21.07
02:53 21.07
03:53 21.07
04:53 21.07
05:53 21.07
06:53 21.07
Ветер
(напр.,м/с)
Видим. Явления Облачность Т
(С)
Тd
(С)
f
(%)
Тe
(С)
Тes
(С)
Комфортность P
(гПа)
Po
(гПа)
Тmin
(С)
Tmax
(С)
R
(мм)
R24
(мм)
S
(см)
штиль 0 16 км ясно +22.8 +13.3 55 +26 +30 жарко 1014.6 1013.8
штиль 0 16 км ясно +26.7 +13.9 45 +29 +39 жарко 1014.4 1013.8
нст 2 16 км ясно +30.6 +11.7 31 +31 +43 жарко 1014.1 1013.5 +17.2 +30.6
СЗ 4 16 км ясно +34.4 +10.0 23 +34 +44 очень
жарко
1013.9 1013.2
З 2 16 км ясно +36.7 +10.6 21 +36 +55 опасность
солнечного
удара
1013.4 1012.8
З 5 16 км ясно +38.3 +8.9 17 +37 +47 очень
жарко
1012.7 1012.2
СЗ 5 16 км ясно +40.6 +7.2 13 +38 +48 очень
жарко
1012.2 1011.5
СЗ 5 16 км ясно +41.1 +6.7 13 +39 +47 очень
жарко
1011.3 1010.8
нст 3 16 км ясно +40.0 +8.9 15 +38 +48 очень
жарко
1010.6 1009.8 +31.1 +41.1
Ю 4 16 км ясно +38.9 +11.7 20 +38 +44 очень
жарко
1010.1 1009.4
ЮЗ 5 16 км ясно +37.2 +10.0 19 +36 +38 очень
жарко
1010.0 1009.4
Ю 3 16 км ясно +34.4 +11.7 25 +34 +35 очень
жарко
1010.1 1009.4
Ю 4 16 км ясно +30.6 +11.1 30 +31 +31 жарко 1010.4 1009.8
ЮЗ 4 16 км ясно +28.3 +10.6 33 +29 +29 жарко 1010.9 1010.1
ЮЗ 3 16 км ясно +26.1 +10.6 38 +27 +27 жарко 1010.5 1009.8 +26.1 +40.0
ЮВ 2 16 км ясно +23.3 +12.2 50 +26 +26 жарко 1010.9 1010.1
ЮВ 2 16 км ясно +23.3 +11.1 46 +26 +26 жарко 1010.6 1010.1
Ю 2 16 км ясно +23.3 +10.6 45 +25 +25 комфорт 1010.4 1009.8
Ю 2 16 км ясно +22.8 +11.1 48 +25 +25 комфорт 1010.4 1009.8
Ю 2 16 км ясно +21.7 +11.1 51 +24 +24 комфорт 1010.3 1009.8
штиль 0 16 км ясно +20.0 +12.2 61 +22 +22 комфорт 1010.3 1009.8 +20.0 +26.1
штиль 0 16 км ясно +18.9 +12.2 65 +20 +20 1010.7 1010.1
Ю 2 16 км ясно +19.4 +12.8 66 +21 +21 комфорт 1011.2 1010.5
штиль 0 16 км ясно +20.6 +12.8 61 +23 +24 комфорт 1011.7 1011.1
штиль 0 16 км ясно +22.8 +13.3 55 +26 +30 жарко 1012.2 1011.5
ЮВ 2 16 км ясно +25.6 +14.4 50 +28 +35 жарко 1012.2 1011.5
Ю 3 16 км ясно +28.9 +15.0 43 +31 +41 жарко 1012.0 1011.5 +18.9 +28.9
нст 3 16 км ясно +31.7 +15.0 36 +34 +47 душно 1011.6 1011.1
Ю 3 16 км ясно +34.4 +13.9 29 +35 +51 опасность
солнечного
удара
1011.0 1010.5
Ю 3 16 км ясно +36.1 +14.4 27 +37 +54 опасность
солнечного
удара
1010.5 1009.8
ЮЗ 5 16 км ясно +37.2 +14.4 26 +38 +48 душно 1009.8 1009.1
ЮЗ 5
{8}
16 км ясно +37.8 +13.3 23 +38 +47 очень
жарко
1009.3 1008.8
ЮЗ 5
{9}
16 км ясно +37.2 +12.2 22 +37 +43 очень
жарко
1008.8 1008.1 +28.9 +38.3
Ю 4 16 км ясно +35.0 +14.4 29 +36 +42 очень
жарко
1008.6 1008.1
Ю 5 16 км ясно +32.2 +14.4 34 +34 +36 душно 1008.9 1008.1
ЮЗ 6
{10}
16 км ясно +28.3 +13.9 41 +30 +31 жарко 1009.0 1008.4
Ю 5 16 км ясно +25.6 +13.3 46 +28 +28 жарко 1009.6 1009.1
Ю 3 16 км ясно +24.4 +12.8 48 +26 +26 жарко 1010.3 1009.8
Ю 5
{9}
16 км ясно +23.3 +12.8 52 +26 +26 жарко 1010.0 1009.4 +23.3 +37.2
Ю 2 16 км ясно +21.7 +12.2 55 +24 +24 комфорт 1010.6 1010.1
Ю 3 16 км ясно +21.1 +12.2 57 +23 +23 комфорт 1010.6 1010.1
Ю 3 16 км ясно +19.4 +12.2 63 +21 +21 комфорт 1010.5 1009.8
ЮВ 3 16 км ясно +18.9 +12.2 65 +20 +20 1010.6 1010.1
Ю 3 16 км ясно +18.3 +12.8 70 +19 +19 1010.5 1009.8
Ю 3 16 км ясно +17.8 +12.2 70 +18 +18 1010.7 1010.1 +17.8 +23.3
Ю 3 16 км ясно +17.2 +12.2 72 +17 +17 1010.9 1010.5
нст 3 16 км ясно +17.2 +12.2 72 +17 +17 1011.4 1010.8
Ю 4 16 км ясно +18.3 +12.2 68 +18 +19 1011.9 1011.5
Местоположение метеостанции Sacramento Executive Airport: широта 38.5069 долгота -121.4950 высота над уровнем моря 5 м.
В архиве по умолчанию представлена погода в Сакраменто за последние 1-2 суток. Обновление информации о фактической погоде в базе происходит ежечасно! Архивные данные за месяц целиком и за предыдущие месяцы Вы можете получить, выбрав интересующий диапазон дат из раскрывающегося списка и нажав кнопку "Ввод!".
Внимание! Архив погоды МЕТАР в базе сайта по станциям, не включенным в климатический монитор, хранится не более 60 дней. Нет смысла пытаться выбрать более раннюю дату.
*Определитесь, кто Вы:
Внимание! Время в таблицах - местное (без учета летнего времени). Для получения всемирного времени необходимо вычесть поправку, которая равна -8 ч.
Смотрите также архив погоды в соседних городах и на ближайших метеорологических станциях:
Партнеры нашего сайта:      
Пояснения к столбцам:
  • Ветер - указаны скорость ветра в м/с - средняя за 10 мин, порывы в срок и между сроками (в фигурных скобках) и направление, откуда дует ветер: С - северный,
  • СВ - северо-восточный, В - восточный, ЮВ - юго-восточный, Ю - южный, ЮЗ - юго-западный, З - западный, СЗ - северо-западный.
  • Видимость - горизонтальная дальность видимости в метрах или километрах. При видимости от 1 до 10 км при отсутствии осадков обычно наблюдается дымка, при ухудшении видимости до 1 км и менее - туман. В сухую погоду видимость может ухудшаться дымом, пылью или мглою.
  • Явления - указаны атмосферные явления, наблюдавшиеся в срок или в последний час перед сроком; фигурными скобками обозначены явления, наблюдавшиеся между сроками (за 1-3 часа до срока); квадратными скобками обозначены град или гололедные отложения с указанием их диаметра в мм.
  • Облачность - указаны через наклонную черту общая и нижняя облачность в баллах и высота нижней границы облаков в метрах; квадратными скобками обозначены формы облаков: Ci - перистые, Cs - перисто-слоистые, Cc - перисто-кучевые, Ac - высококучевые, As - высокослоистые, Sc - слоисто-кучевые, Ns - слоисто-дождевые, Cu - кучевые, Cb - кучево-дождевые. Подробнее классификацию облаков см. в Атласе облаков (PDF).
  • T - Температура воздуха - температура, измеренная на высоте 2 м над землей.
  • Td - Температура точки росы - температура, при понижении до которой содержащийся в воздухе водяной пар достигнет насыщения.
  • f - Относительная влажность воздуха - влажноcть воздуха, измеренная на высоте 2 м над землей.
  • Te - Эффективная температура - температура, которую ощущает одетый по сезону человек в тени. Характеристика душности погоды. При расчете учитывается влияние влажности воздуха и скорости ветра на теплоощущения человека.
  • Tes - Эффективная температура на солнце - температура, которую ощущает человек, с поправкой на солнечный нагрев. Характеристика знойности погоды. Зависит от высоты солнца над горизонтом, облачности и скорости ветра. Ночью, в пасмурную погоду, а также при ветре 12 м/с и более поправка равна нулю.
  • P - Атмосферное давление - приведенное к уровню моря атмосферное давление.
  • Po - Атмосферное давление - измеренное на уровне метеостанции атмосферное давление.
  • Tmin - Минимальная температура - минимум температуры воздуха на высоте 2 м над землей.
  • Tmax - Максимальная температура - максимум температуры воздуха на высоте 2 м над землей.
  • R - Количество осадков - Количество выпавших осадков за период времени, мм. При наведении курсора мыши на число - период времени, за который выпало указанное количество осадков.
  • R24 - Количество осадков - Количество выпавших осадков за 24 часа, мм.
  • S - Снежный покров - Высота снежного покрова, см. При наведении курсора мыши на число - состояние снежного покрова и степень покрытия местности в баллах.